EN

Hourly Weather Police

Today, 1 November, Sunday

Time Temperature Precipitation Wind Pressure Humidity
00:00 +12°C° 0 mm 5 mps 762 mmHg 93%
01:00 +12°C° 0 mm 5 mps 762 mmHg 93%
02:00 +12°C° 0 mm 5 mps 761 mmHg 93%
03:00 +12°C° 0 mm 5 mps 761 mmHg 92%
04:00 +10°C° 0 mm 5 mps 760 mmHg 92%
05:00 +10°C° 0 mm 5 mps 760 mmHg 92%
06:00 +11°C° 0 mm 4 mps 760 mmHg 92%
07:00 +11°C° 0 mm 4 mps 760 mmHg 92%
08:00 +11°C° 0.3 mm 4 mps 760 mmHg 92%
09:00 +11°C° 0.3 mm 4 mps 760 mmHg 92%
10:00 +11°C° 0.3 mm 4 mps 759 mmHg 92%
11:00 +11°C° 0 mm 3 mps 759 mmHg 91%
12:00 +12°C° 0 mm 3 mps 759 mmHg 90%
13:00 +12°C° 0 mm 3 mps 759 mmHg 90%
14:00 +12°C° 0.2 mm 3 mps 758 mmHg 91%
15:00 +12°C° 0.2 mm 3 mps 758 mmHg 92%
16:00 +12°C° 0.2 mm 3 mps 758 mmHg 92%
17:00 +12°C° 0 mm 4 mps 757 mmHg 92%
18:00 +12°C° 0 mm 4 mps 757 mmHg 92%
19:00 +11°C° 0 mm 4 mps 757 mmHg 91%
20:00 +12°C° 0 mm 4 mps 757 mmHg 91%
21:00 +12°C° 0 mm 5 mps 756 mmHg 92%
22:00 +13°C° 0 mm 5 mps 756 mmHg 92%
23:00 +13°C° 0.1 mm 5 mps 756 mmHg 92%

Tomorrow, 2 November, Monday

Time Temperature Precipitation Wind Pressure Humidity
00:00 +13°C° 0.1 mm 5 mps 756 mmHg 92%
01:00 +14°C° 0.1 mm 5 mps 756 mmHg 91%
02:00 +14°C° 0 mm 4 mps 755 mmHg 92%
03:00 +14°C° 0 mm 4 mps 755 mmHg 92%
04:00 +14°C° 0 mm 4 mps 755 mmHg 92%
05:00 +14°C° 0.8 mm 5 mps 755 mmHg 93%
06:00 +14°C° 0.8 mm 5 mps 755 mmHg 93%
07:00 +14°C° 0.8 mm 5 mps 755 mmHg 94%
08:00 +15°C° 0.1 mm 5 mps 755 mmHg 91%
09:00 +16°C° 0.1 mm 6 mps 756 mmHg 88%
10:00 +16°C° 0.1 mm 6 mps 756 mmHg 85%
11:00 +17°C° 0 mm 6 mps 756 mmHg 83%
12:00 +19°C° 0 mm 6 mps 755 mmHg 81%
13:00 +19°C° 0 mm 6 mps 755 mmHg 79%
14:00 +19°C° 0 mm 6 mps 755 mmHg 81%
15:00 +19°C° 0 mm 6 mps 755 mmHg 83%
16:00 +17°C° 0 mm 5 mps 755 mmHg 85%
17:00 +17°C° 0.1 mm 5 mps 756 mmHg 83%
18:00 +17°C° 0.1 mm 5 mps 756 mmHg 82%
19:00 +16°C° 0.1 mm 5 mps 756 mmHg 80%
20:00 +16°C° 0 mm 5 mps 756 mmHg 79%
21:00 +16°C° 0 mm 6 mps 756 mmHg 78%
22:00 +17°C° 0 mm 6 mps 756 mmHg 78%
23:00 +16°C° 0 mm 6 mps 757 mmHg 79%

Day after tomorrow, 3 November, Tuesday

Time Temperature Precipitation Wind Pressure Humidity
00:00 +16°C° 0 mm 6 mps 757 mmHg 80%
01:00 +16°C° 0 mm 5 mps 758 mmHg 81%
02:00 +15°C° 0 mm 5 mps 759 mmHg 79%
03:00 +14°C° 0 mm 5 mps 759 mmHg 77%
04:00 +13°C° 0 mm 4 mps 760 mmHg 75%
05:00 +12°C° 0 mm 5 mps 760 mmHg 76%
06:00 +10°C° 0 mm 5 mps 761 mmHg 77%
07:00 +9°C° 0 mm 5 mps 762 mmHg 77%
08:00 +10°C° 0 mm 6 mps 762 mmHg 73%
09:00 +10°C° 0 mm 6 mps 763 mmHg 69%
10:00 +11°C° 0 mm 7 mps 764 mmHg 64%
11:00 +11°C° 0 mm 7 mps 764 mmHg 62%
12:00 +11°C° 0 mm 7 mps 764 mmHg 60%
13:00 +11°C° 0 mm 7 mps 765 mmHg 58%
14:00 +11°C° 0 mm 6 mps 765 mmHg 59%
15:00 +10°C° 0 mm 5 mps 765 mmHg 60%
16:00 +10°C° 0 mm 4 mps 765 mmHg 62%
17:00 +10°C° 0 mm 4 mps 766 mmHg 64%
18:00 +8°C° 0 mm 4 mps 766 mmHg 67%
19:00 +7°C° 0 mm 5 mps 766 mmHg 70%
20:00 +7°C° 0 mm 4 mps 767 mmHg 72%
21:00 +7°C° 0 mm 4 mps 767 mmHg 74%
22:00 +6°C° 0 mm 4 mps 767 mmHg 76%
23:00 +6°C° 0 mm 4 mps 767 mmHg 77%

4 November, Wednesday

Time Temperature Precipitation Wind Pressure Humidity
00:00 +6°C° 0 mm 4 mps 767 mmHg 78%
01:00 +6°C° 0 mm 4 mps 767 mmHg 79%
02:00 +6°C° 0 mm 4 mps 768 mmHg 81%
03:00 +5°C° 0 mm 4 mps 768 mmHg 82%
04:00 +5°C° 0 mm 4 mps 768 mmHg 84%
05:00 +5°C° 0 mm 4 mps 768 mmHg 85%
06:00 +4°C° 0 mm 4 mps 768 mmHg 87%
07:00 +4°C° 0 mm 4 mps 768 mmHg 88%
08:00 +5°C° 0 mm 4 mps 769 mmHg 83%
09:00 +6°C° 0 mm 4 mps 769 mmHg 78%
10:00 +7°C° 0 mm 4 mps 769 mmHg 74%
11:00 +8°C° 0 mm 4 mps 769 mmHg 70%
12:00 +8°C° 0 mm 4 mps 770 mmHg 67%
13:00 +10°C° 0 mm 4 mps 770 mmHg 64%
14:00 +9°C° 0 mm 3 mps 770 mmHg 67%
15:00 +9°C° 0 mm 3 mps 770 mmHg 71%
16:00 +8°C° 0 mm 3 mps 770 mmHg 74%
17:00 +8°C° 0 mm 3 mps 770 mmHg 77%
18:00 +7°C° 0 mm 3 mps 771 mmHg 80%
19:00 +5°C° 0 mm 3 mps 771 mmHg 83%
20:00 +5°C° 0 mm 3 mps 771 mmHg 82%
21:00 +5°C° 0 mm 3 mps 771 mmHg 81%
22:00 +6°C° 0 mm 2 mps 771 mmHg 81%
23:00 +5°C° 0 mm 3 mps 772 mmHg 82%

5 November, Thursday

Time Temperature Precipitation Wind Pressure Humidity
00:00 +5°C° 0 mm 3 mps 772 mmHg 83%
01:00 +4°C° 0 mm 3 mps 772 mmHg 84%
02:00 +4°C° 0 mm 3 mps 772 mmHg 87%
03:00 +4°C° 0 mm 3 mps 772 mmHg 90%
04:00 +3°C° 0 mm 3 mps 772 mmHg 93%
05:00 +3°C° 0 mm 3 mps 773 mmHg 93%
06:00 +3°C° 0 mm 3 mps 773 mmHg 93%
07:00 +3°C° 0 mm 3 mps 773 mmHg 94%
08:00 +4°C° 0 mm 3 mps 774 mmHg 90%
09:00 +5°C° 0 mm 4 mps 774 mmHg 86%
10:00 +6°C° 0 mm 4 mps 774 mmHg 83%
11:00 +7°C° 0 mm 4 mps 774 mmHg 79%
12:00 +8°C° 0 mm 4 mps 774 mmHg 75%
13:00 +10°C° 0 mm 4 mps 774 mmHg 71%
14:00 +8°C° 0 mm 4 mps 774 mmHg 73%
15:00 +9°C° 0 mm 3 mps 774 mmHg 76%
16:00 +8°C° 0 mm 3 mps 774 mmHg 78%
17:00 +8°C° 0 mm 3 mps 775 mmHg 81%
18:00 +7°C° 0 mm 3 mps 775 mmHg 84%
19:00 +7°C° 0 mm 3 mps 775 mmHg 87%
20:00 +7°C° 0 mm 3 mps 775 mmHg 86%
21:00 +6°C° 0 mm 4 mps 775 mmHg 85%
22:00 +7°C° 0 mm 4 mps 775 mmHg 84%
23:00 +7°C° 0 mm 3 mps 775 mmHg 86%

6 November, Friday

Time Temperature Precipitation Wind Pressure Humidity
00:00 +7°C° 0 mm 3 mps 775 mmHg 89%
01:00 +5°C° 0 mm 3 mps 775 mmHg 92%
02:00 +5°C° 0 mm 3 mps 775 mmHg 93%
03:00 +5°C° 0 mm 3 mps 775 mmHg 93%
04:00 +4°C° 0 mm 3 mps 775 mmHg 94%
05:00 +4°C° 0 mm 3 mps 775 mmHg 94%
06:00 +4°C° 0 mm 3 mps 775 mmHg 95%
07:00 +4°C° 0 mm 3 mps 775 mmHg 95%
08:00 +5°C° 0 mm 3 mps 776 mmHg 92%
09:00 +7°C° 0 mm 3 mps 776 mmHg 88%
10:00 +8°C° 0 mm 3 mps 776 mmHg 85%
11:00 +8°C° 0 mm 2 mps 776 mmHg 82%
12:00 +9°C° 0 mm 2 mps 775 mmHg 80%
13:00 +10°C° 0 mm 2 mps 775 mmHg 77%
14:00 +10°C° 0 mm 2 mps 775 mmHg 79%
15:00 +9°C° 0 mm 2 mps 775 mmHg 81%
16:00 +10°C° 0 mm 1 mps 775 mmHg 82%
17:00 +10°C° 0 mm 1 mps 775 mmHg 83%
18:00 +10°C° 0 mm 1 mps 775 mmHg 84%
19:00 +9°C° 0 mm 1 mps 775 mmHg 85%
20:00 +9°C° 0 mm 1 mps 775 mmHg 85%
21:00 +9°C° 0 mm 1 mps 775 mmHg 86%
22:00 +9°C° 0 mm 1 mps 775 mmHg 86%
23:00 +9°C° 0 mm 1 mps 774 mmHg 87%
Show more